[[{"header":{"parameterUnit":"m.s-1","parameterCategory":1,"la1":30.2991,"la2":30.254,"lo1":-89.0895,"lo2":-89.0444,"dy":0.0017,"dx":0.0017,"nx":28,"ny":28,"refTime":"2025-01-01T03:00:00:Z","depth":0,"parameterNumber":2,"parameterNumberName":"U-component_of_WINDS"},"data":[0,0,0,0,0,0,0,0,0,0,0,0,0,0,0,0,0,0,0,0,0,0,0,0,0,0,0,0,0,0,0,0,0,0,0,0,0,0,0,0,0,0,0,0,0,0,0,0,0,0,0,0,0,0,0,0,0,0,-0.9812,-0.9813,0,-0.9927,-0.9928,-0.9929,-0.9905,-0.9902,-0.99,-0.9898,-1.0021,-1.0026,-1.0031,0,0,0,0,0,0,0,0,0,0,0,0,0,-0.9575,-0.9579,-0.9812,-0.9813,-0.9815,-0.9927,-0.9928,-0.993,-0.9905,-0.9902,-0.99,-0.9897,-1.0019,-1.0026,-1.0032,0,0,0,0,0,0,0,0,0,0,0,0,0,-0.9683,-0.9581,-0.9811,-0.9815,-0.9817,-0.9926,-0.9928,-0.993,-0.9905,-0.9902,-0.9899,-0.9896,-1.0017,-1.0025,-1.0033,-1.0147,0,0,-1.0057,-1.006,0,0,0,0,0,0,0,0,-0.9677,-0.9692,-0.9813,-0.9815,-0.9817,-0.9898,-0.989,-1.0003,-0.9906,-0.9872,-0.9898,-0.9894,-0.9983,-0.9994,-1.0022,-1.0152,-1.0158,-1.0058,-1.0063,-1.0066,-1.0068,0,0,0,0,0,0,0,-0.9669,-0.9686,-0.9857,-0.9815,-0.9818,-0.9813,-0.9825,-0.9911,-0.9945,-0.9875,-0.9873,-0.9887,-0.9984,-1.0015,-1.0025,-1.016,-1.0058,-1.0065,-1.0069,-1.0073,-1.039,-1.0394,0,0,0,0,0,0,-0.9659,-0.968,-0.9854,-0.9861,-0.9737,-0.982,-0.9833,-0.9875,-0.9943,-0.9951,-0.989,-0.9885,-1.0003,-1.0016,-1.0029,-1.0169,-1.0066,-1.0073,-1.0078,-1.0387,-1.0391,-1.0395,0,0,0,0,0,0,-0.9654,-0.9675,-0.9849,-0.977,-0.9792,-0.9827,-0.9875,-0.9879,-0.9911,-0.9955,-0.9961,-0.9915,-1.0001,-1.0018,-1.0118,-1.0173,-1.0077,-1.0084,-1.0382,-1.0388,-1.0393,-1.0448,0,0,0,0,0,0,-0.9648,-0.9673,-0.9716,-0.9771,-0.9796,-0.9934,-0.9879,-0.9884,-0.9924,-0.9919,-0.998,-0.9987,-1.0,-1.0106,-1.0126,-1.0182,-1.009,-1.0378,-1.0385,-1.0391,-1.0441,-1.0455,-1.0466,0,0,0,0,0,-0.9639,-0.9728,-0.9718,-0.974,-0.985,-0.9938,-0.9952,-0.9963,-0.9928,-0.9973,-1.0001,-0.9985,-1.0163,-1.0116,-1.0138,-1.0198,-1.0374,-1.0383,-1.0391,-1.0436,-1.0452,-1.0466,0,0,0,0,0,0,-0.968,-0.9735,-0.9725,-0.9834,-0.9881,-0.9933,-0.9989,-0.9979,-1.0039,-1.0032,-1.0045,-1.0059,-1.016,-1.0189,-1.0136,-1.0312,-1.0264,-1.0277,-1.0291,-1.0306,-1.0318,-1.0311,-1.0097,0,0,0,0,0,-0.9701,-0.9766,-0.9811,-0.9903,-0.9927,-0.9954,-0.9992,-0.9996,-1.0046,-1.0067,-1.0102,-1.0153,-1.022,-1.0264,-1.0328,-1.0444,-1.0458,-1.0496,-1.0508,-1.0518,-1.053,-1.0595,-1.0613,-1.0422,-1.0422,-1.0422,0,0,-0.9747,-0.9785,-0.9825,-0.9912,-0.9949,-1.0018,-0.9971,-1.0045,-1.0097,-1.0079,-1.0175,-1.0202,-1.026,-1.0368,-1.0418,-1.0395,-1.0585,-1.0529,-1.0536,-1.0543,-1.0606,-1.0624,-1.064,-1.0428,-1.0427,-1.0426,0,0,-0.9865,-0.9899,-0.998,-1.0017,-1.0073,-1.0091,-1.011,-1.0164,-1.0181,-1.0277,-1.0265,-1.0327,-1.0442,-1.0484,-1.052,-1.0653,-1.0642,-1.0673,-1.0739,-1.0802,-1.0817,-1.0831,-1.0881,-1.0898,-1.0685,-1.0685,-1.0685,0,-0.9915,-1.0017,-1.0023,-1.0099,-1.0138,-1.0122,-1.0205,-1.0242,-1.0317,-1.0345,-1.0317,-1.0462,-1.0499,-1.0618,-1.065,-1.0679,-1.0704,-1.0668,-1.0814,-1.0828,-1.0841,-1.0888,-1.0907,-1.0688,-1.0688,-1.0688,-1.0687,0,-1.0077,-1.0147,-1.0206,-1.0277,-1.0322,-1.0401,-1.0421,-1.0467,-1.0467,-1.0487,-1.0586,-1.063,-1.0703,-1.0731,-1.0732,-1.0851,-1.0835,-1.0811,-1.0763,-1.0862,-1.0908,-1.0926,-1.0694,-1.0692,-1.0691,-1.069,0,0,-1.0226,-1.0299,-1.0321,-1.0353,-1.0413,-1.0469,-1.0547,-1.0617,-1.0657,-1.0709,-1.0777,-1.0874,-1.0851,-1.0893,-1.0898,-1.0953,-1.1059,-1.0922,-1.0924,-1.0948,-1.1195,-1.1215,-1.1236,-1.105,-1.1053,-1.1056,-1.1191,0,-1.0352,-1.0489,-1.0497,-1.0623,-1.0689,-1.0674,-1.0743,-1.0788,-1.0809,-1.087,-1.0893,-1.0963,-1.0927,-1.0952,-1.1006,-1.1034,-1.1109,-1.1024,-1.1116,-1.1119,-1.1105,-1.1259,-1.128,-1.1405,-1.1208,-1.1211,-1.1213,0,-1.0518,-1.0573,-1.0705,-1.0756,-1.0784,-1.0846,-1.0911,-1.0968,-1.102,-1.1031,-1.1076,-1.1074,-1.1156,-1.1103,-1.1218,-1.116,-1.1198,-1.1217,-1.1222,-1.1234,-1.1175,-1.1277,-1.1445,-1.1465,-1.1241,-1.1238,-1.1236,0,-1.0617,-1.0725,-1.0818,-1.0846,-1.0907,-1.0951,-1.0979,-1.1026,-1.1068,-1.1125,-1.1153,-1.1219,-1.1256,-1.1308,-1.1324,-1.1283,-1.144,-1.1387,-1.1454,-1.1454,-1.149,-1.1488,-1.1669,-1.1509,-1.1509,-1.1509,-1.1508,0,-1.0759,-1.0841,-1.0863,-1.0921,-1.1012,-1.1021,-1.1112,-1.1137,-1.1179,-1.1243,-1.1233,-1.1294,-1.1309,-1.1373,-1.1386,-1.148,-1.1496,-1.151,-1.1513,-1.1512,-1.1511,-1.154,-1.1533,-1.1514,-1.1512,-1.1512,-1.1511,0,-1.0887,-1.0905,-1.1005,-1.1054,-1.1069,-1.1134,-1.1177,-1.1233,-1.1252,-1.1333,-1.1352,-1.1382,-1.1457,-1.1477,-1.1566,-1.1574,-1.1687,-1.168,-1.1669,-1.167,-1.1737,-1.1731,-1.1945,-1.1974,-1.1792,-1.1794,-1.1795,0,-1.0977,-1.104,-1.1095,-1.1136,-1.1165,-1.1232,-1.1274,-1.1284,-1.1329,-1.1391,-1.1441,-1.1513,-1.1572,-1.1692,-1.1723,-1.1791,-1.1788,-1.1858,-1.1799,-1.1797,-1.1793,-1.179,-1.1798,-1.1871,-1.1873,-1.1874,-1.1875,0,-1.1137,-1.1143,-1.1203,-1.1267,-1.1317,-1.1368,-1.1417,-1.1452,-1.1469,-1.152,-1.1595,-1.164,-1.1731,-1.1804,-1.1873,-1.1903,-1.1894,-1.1893,-1.1913,-1.1915,-1.1907,-1.1915,-1.1703,-1.1889,-1.1888,-1.1887,-1.1886,-1.1886,-1.1252,-1.1307,-1.1354,-1.1422,-1.1459,-1.1505,-1.1561,-1.1586,-1.1648,-1.1722,-1.1724,-1.1806,-1.1856,-1.1947,-1.1981,-1.2047,-1.2026,-1.2054,-1.2061,-1.2069,-1.2076,-1.1894,-1.2059,-1.2058,-1.2058,-1.2058,-1.2057,0,-1.1413,-1.1443,-1.1505,-1.1573,-1.1627,-1.1609,-1.1663,-1.171,-1.1781,-1.1828,-1.1886,-1.1973,-1.2043,-1.2079,-1.215,-1.2195,-1.2193,-1.2214,-1.2212,-1.222,-1.2089,-1.2066,-1.2215,-1.2215,-1.2215,-1.2215,-1.2215,-1.2214,-1.1504,-1.1597,-1.1608,-1.1721,-1.1749,-1.1829,-1.1861,-1.1904,-1.1941,-1.2038,-1.2096,-1.2118,-1.2161,-1.2235,-1.2299,-1.2308,-1.2336,-1.236,-1.2367,-1.2245,-1.2229,-1.2214,-1.2192,-1.2365,-1.2365,-1.2493,-1.2494,-1.2495]},{"header":{"parameterUnit":"m.s-1","parameterCategory":1,"la1":30.2991,"la2":30.254,"lo1":-89.0895,"lo2":-89.0444,"dy":0.0017,"dx":0.0017,"nx":28,"ny":28,"refTime":"2025-01-01T03:00:00:Z","depth":0,"parameterNumber":3,"parameterNumberName":"V-component_of_WINDS"},"data":[0,0,0,0,0,0,0,0,0,0,0,0,0,0,0,0,0,0,0,0,0,0,0,0,0,0,0,0,0,0,0,0,0,0,0,0,0,0,0,0,0,0,0,0,0,0,0,0,0,0,0,0,0,0,0,0,0,0,-5.498,-5.4981,0,-5.5099,-5.51,-5.5102,-5.5023,-5.502,-5.5016,-5.5013,-5.5133,-5.5139,-5.5146,0,0,0,0,0,0,0,0,0,0,0,0,0,-5.4682,-5.4688,-5.498,-5.4981,-5.4983,-5.5099,-5.51,-5.5102,-5.5024,-5.502,-5.5015,-5.5011,-5.5131,-5.5138,-5.5146,0,0,0,0,0,0,0,0,0,0,0,0,0,-5.4807,-5.469,-5.4979,-5.4958,-5.4957,-5.5098,-5.51,-5.5102,-5.5025,-5.502,-5.5014,-5.5009,-5.5128,-5.5138,-5.5147,-5.5316,0,0,-5.5177,-5.5182,0,0,0,0,0,0,0,0,-5.48,-5.4818,-5.496,-5.496,-5.4959,-5.5041,-5.5039,-5.5174,-5.5026,-5.4999,-5.5013,-5.5006,-5.5106,-5.5118,-5.5152,-5.5322,-5.5327,-5.5178,-5.5184,-5.5188,-5.5191,0,0,0,0,0,0,0,-5.4792,-5.4813,-5.5027,-5.4962,-5.4961,-5.4941,-5.4953,-5.5064,-5.5082,-5.5001,-5.4996,-5.5011,-5.5105,-5.5143,-5.5154,-5.5328,-5.5178,-5.5187,-5.5193,-5.5197,-5.5642,-5.5647,0,0,0,0,0,0,-5.4785,-5.4806,-5.5023,-5.503,-5.4865,-5.4951,-5.4964,-5.502,-5.508,-5.5084,-5.5015,-5.5007,-5.5128,-5.5143,-5.5158,-5.5359,-5.5188,-5.5197,-5.5203,-5.5636,-5.5643,-5.5649,0,0,0,0,0,0,-5.4779,-5.4805,-5.5018,-5.4917,-5.4942,-5.4962,-5.5025,-5.5025,-5.5062,-5.5091,-5.5093,-5.5051,-5.5125,-5.5144,-5.5277,-5.5362,-5.5202,-5.5211,-5.5629,-5.5638,-5.5646,-5.5764,0,0,0,0,0,0,-5.4771,-5.4803,-5.4869,-5.4919,-5.4948,-5.5137,-5.503,-5.5031,-5.508,-5.507,-5.5125,-5.5129,-5.5122,-5.5263,-5.5287,-5.5373,-5.5218,-5.5621,-5.5633,-5.5643,-5.5752,-5.5776,-5.5795,0,0,0,0,0,-5.476,-5.4897,-5.4872,-5.4899,-5.503,-5.5142,-5.5158,-5.5149,-5.5087,-5.5152,-5.517,-5.5127,-5.5349,-5.5277,-5.5304,-5.5394,-5.5616,-5.5629,-5.5642,-5.5743,-5.5771,-5.5795,0,0,0,0,0,0,-5.4855,-5.4903,-5.4876,-5.5033,-5.5084,-5.5128,-5.521,-5.5179,-5.5248,-5.5236,-5.522,-5.5233,-5.5372,-5.5396,-5.5315,-5.556,-5.5472,-5.5492,-5.554,-5.5567,-5.5588,-5.558,-5.5227,0,0,0,0,0,-5.4895,-5.4982,-5.5018,-5.5153,-5.518,-5.5191,-5.524,-5.5228,-5.5279,-5.5301,-5.5328,-5.538,-5.5461,-5.5515,-5.5591,-5.5755,-5.5765,-5.583,-5.5851,-5.5869,-5.5886,-5.5974,-5.6003,-5.5693,-5.5693,-5.5693,0,0,-5.4976,-5.5013,-5.5069,-5.5173,-5.5211,-5.5302,-5.521,-5.531,-5.5376,-5.5315,-5.5443,-5.5465,-5.5521,-5.5671,-5.5738,-5.5695,-5.5973,-5.5886,-5.5899,-5.5907,-5.599,-5.602,-5.6046,-5.5702,-5.5701,-5.5699,0,0,-5.5172,-5.5209,-5.5325,-5.5365,-5.5424,-5.543,-5.5458,-5.5508,-5.552,-5.5648,-5.5604,-5.5682,-5.5823,-5.5865,-5.5904,-5.6115,-5.6077,-5.614,-5.6253,-5.6339,-5.6363,-5.6385,-5.646,-5.6487,-5.6157,-5.6157,-5.6157,0,-5.5266,-5.5402,-5.5388,-5.5492,-5.5539,-5.5488,-5.5605,-5.5644,-5.5725,-5.5758,-5.5708,-5.5883,-5.5918,-5.6076,-5.6127,-5.6161,-5.6192,-5.6134,-5.6361,-5.6382,-5.6402,-5.6474,-5.6502,-5.6164,-5.6163,-5.6163,-5.6162,0,-5.5515,-5.5609,-5.5696,-5.5776,-5.5832,-5.5942,-5.5944,-5.6003,-5.5985,-5.5996,-5.6127,-5.6166,-5.6249,-5.6285,-5.6269,-5.6441,-5.6413,-5.6363,-5.6275,-5.6439,-5.6506,-5.6534,-5.6175,-5.6172,-5.617,-5.6168,0,0,-5.5775,-5.5846,-5.5878,-5.5914,-5.5974,-5.6047,-5.6153,-5.6236,-5.6286,-5.6343,-5.6432,-5.6551,-5.6505,-5.655,-5.6538,-5.6613,-5.6777,-5.6553,-5.6554,-5.6594,-5.6969,-5.7007,-5.7039,-5.6752,-5.6757,-5.6761,-5.6964,0,-5.5975,-5.6163,-5.6153,-5.6328,-5.6415,-5.6367,-5.646,-5.6507,-5.652,-5.6595,-5.6608,-5.6693,-5.6626,-5.6652,-5.6725,-5.6742,-5.6852,-5.6727,-5.6834,-5.6838,-5.6823,-5.7074,-5.7115,-5.7305,-5.6991,-5.6995,-5.6998,0,-5.6234,-5.63,-5.6484,-5.6532,-5.6568,-5.6652,-5.6726,-5.6798,-5.6849,-5.6853,-5.6904,-5.6879,-5.6986,-5.6894,-5.7041,-5.6956,-5.6999,-5.7014,-5.7021,-5.7031,-5.6929,-5.7092,-5.7366,-5.7394,-5.7039,-5.7036,-5.7033,0,-5.6406,-5.6541,-5.6669,-5.67,-5.6759,-5.6819,-5.6846,-5.6892,-5.6942,-5.7006,-5.7038,-5.7113,-5.7155,-5.7213,-5.7209,-5.7143,-5.7358,-5.7266,-5.7364,-5.7365,-5.7413,-5.741,-5.7698,-5.7439,-5.7439,-5.7438,-5.7438,0,-5.663,-5.6745,-5.6747,-5.6826,-5.6952,-5.694,-5.7065,-5.7085,-5.7127,-5.7208,-5.717,-5.7247,-5.7236,-5.7313,-5.731,-5.7432,-5.7451,-5.7456,-5.7454,-5.7461,-5.746,-5.7489,-5.7476,-5.7446,-5.7444,-5.7443,-5.7441,0,-5.6845,-5.6851,-5.6987,-5.7031,-5.7044,-5.7136,-5.7173,-5.7247,-5.7256,-5.7359,-5.7382,-5.7397,-5.7485,-5.7486,-5.7587,-5.7585,-5.7734,-5.7716,-5.7717,-5.7714,-5.7812,-5.7803,-5.813,-5.8172,-5.7885,-5.7888,-5.789,0,-5.6989,-5.7076,-5.7129,-5.7181,-5.7212,-5.7296,-5.7347,-5.7337,-5.7391,-5.7456,-5.7522,-5.7606,-5.7674,-5.7817,-5.7835,-5.7912,-5.7897,-5.8006,-5.7908,-5.7911,-5.7899,-5.7894,-5.7903,-5.8025,-5.8028,-5.8031,-5.8033,0,-5.7243,-5.7241,-5.7316,-5.7393,-5.7454,-5.7513,-5.7568,-5.7612,-5.7608,-5.767,-5.776,-5.7813,-5.7916,-5.8,-5.8074,-5.81,-5.8067,-5.8063,-5.809,-5.8098,-5.8095,-5.8098,-5.777,-5.8056,-5.8054,-5.8052,-5.8051,-5.805,-5.7427,-5.7502,-5.7552,-5.7636,-5.7676,-5.7728,-5.78,-5.7818,-5.7893,-5.7977,-5.7965,-5.8066,-5.8114,-5.821,-5.8242,-5.832,-5.8282,-5.832,-5.833,-5.834,-5.8351,-5.8082,-5.8333,-5.8332,-5.8332,-5.8331,-5.8331,0,-5.768,-5.7709,-5.7787,-5.7865,-5.7931,-5.7893,-5.7951,-5.8009,-5.8098,-5.8146,-5.8213,-5.8316,-5.8398,-5.8423,-5.8501,-5.8558,-5.8545,-5.8579,-5.8576,-5.8582,-5.8381,-5.835,-5.8589,-5.8589,-5.8589,-5.8589,-5.8589,-5.8589,-5.782,-5.7945,-5.7949,-5.8094,-5.8121,-5.822,-5.8257,-5.8304,-5.8342,-5.8459,-5.8527,-5.8543,-5.8581,-5.8662,-5.8735,-5.8739,-5.877,-5.8812,-5.8811,-5.8622,-5.8596,-5.8572,-5.8543,-5.8818,-5.8819,-5.9006,-5.9007,-5.9009]}]]